Tracking 28518 objects as of 2-Mar-2024
HD Live streaming from Space Station
objects crossing your sky now

COSMOS 1633

Track COSMOS 1633 now!
10-day predictions
COSMOS 1633 is classified as:


NORAD ID: 15592
Int'l Code: 1985-020A
Perigee: 310.3 km
Apogee: 322.6 km
Inclination: 82.5 °
Period: 90.7 minutes
Semi major axis: 6687 km
RCS: 7.2924 m2 (large)
Launch date: March 5, 1985
Source: Commonwealth of Independent States (former USSR) (CIS)
Launch site: PLESETSK MISSILE AND SPACE COMPLEX (PKMTR)
Your satellite tracking list
Your tracking list is empty




NASA's NSSDC Master Catalog

Two Line Element Set (TLE):
1 15592U 85020A   24061.88157580  .00227490  00000-0  84214-3 0  9998
2 15592  82.5166 356.0836 0009146  89.9545 270.2774 15.87499379140032
Source of the keplerian elements: AFSPC